Dauntless Aviation
Airports Europe France
LFBD
BOD

Merignac

Bordeaux, FRANCE

Airport Info
Suggest Updated Information for this Airport

Location

Latitude / Longitude: 44°49'41"N / 0°42'56"W
  44°49.698'N / 0°42.936'W
  44.8283 / -0.7156

Nearby radio navigation aids

BD BORDEAUX NDB. 228.2° 9.2nm from BD to field.
BDX BORDEAUX VORTAC on field.
BE BORDEAUX NDB. 262.1° 13.8nm from BE to field.
NB BORDEAUX NDB. 202.9° 20.4nm from NB to field.

Runway Information

Runway 05 /23

Dimensions: 10171 x 148 ft.
Surface: ASP
 
Runway 05
Runway 23
Latitude: 44.819103 44.838694
Longitude: -0.728983 -0.701
Elevation: 160 ft. 160 ft.
Runway true heading: 42.9 222.9
 

Runway 11 /29

Dimensions: 7923 x 148 ft.
Surface: ASP
 
Runway 11
Runway 29
Latitude: 44.831567 44.825411
Longitude: -0.729242 -0.699897
Elevation: 153 ft. 153 ft.
Runway true heading: 103.9 283.9
 

Instrument Procedures

  Aerodrome Chart

Departure Procedures

  Arrival and Departure Chart

IAPs (Instrument Approach Procedures)

  Visual Approch Chart
  Visual Approach Chart - Helicopter
Satellite photo at:
Airport distance calculator
From:
Weather Reports

METAR

LFBD

LFBD 262300Z AUTO 27004KT CAVOK 22/19 Q1016 NOSIG
LFBC
25.4nm S
LFBC 262300Z AUTO 35004KT CAVOK 21/18 Q1016 TEMPO 0900 BCFG

TAF

LFBD
TAF LFBD 261700Z 2618/2724 30005KT CAVOK PROB30 TEMPO 2618/2620 FEW050CB PROB30 2702/2706 1500 MIFG PROB30 TEMPO 2712/2718 14010KT FEW050CB PROB40 2722/2724 BKN006 TX37/2715Z TN20/2705Z
LFBC
25.4nm S
TAF LFBC 261700Z 2618/2718 34007KT CAVOK PROB40 TEMPO 2700/2707 0900 BCFG
Safelog

 

Dauntless Aviation

© 2007-2016 Dauntless Aviation, all rights reserved
Information provided via PilotNav comes from a variety of official and unofficial data sources. As errors are possible, do not use PilotNav for primary flight planning purposes. Verify any information that you receive via PilotNav with current and canonical charts and other official documents. The material in this database is subject to database copyrights held by Dauntless Aviation and may not be copied without the express permission of Dauntless Aviation - licenses for use of part of all of this data are available for purchase; enquire via the Dauntless Aviation helpdesk. A number of mechanisms and markers exist in the database to protect against and identify infringement / copyright. Automated queries against this website are stictly prohibited, and all activity is logged and analyzed.